Location: Ailingen
(47.6833°N, 9.5000°E)
Time: 06:19:46
(UTC+00:00)

Cosmos 841 Rocket - Pass Details

Date: 18 November 2025
Orbit: 742 x 768 km, 74.0° (Epoch: 04 December)

Event Time Altitude Azimuth Distance (km) Brightness Sun altitude
Rises 17:26:43 0° 339° (NNW) 3,248 6.9 -17.4°
Reaches altitude 10° 17:29:09 10° 344° (NNW) 2,318 6.1 -17.8°
Maximum altitude 17:34:21 60° 64° (ENE) 881 3.5 -18.7°
Enters shadow 17:38:53 14° 143° (SE) 2,064 5.4 -19.4°
